Wind_Speed
5 4 4 3 3 3 2 4 3 4 3 3 23 5 7 5 2 3 20 18 17 16 16 15 14 14 14 15 16 16 17 17 17 17 16 16 16 15 15 14 15 14 13 14 13 13 13 14 13
6 3 4 1 4 4 2 2 4 2 11 23 17 11 6 3 7 18 24 17 17 16 16 16 15 15 15 15 15 16 16 16 18 18 16 16 16 16 15 14 15 15 14 13 13 13 13 15 12
3 5 2 3 2 2 4 3 6 6 9 6 6 10 5 3 17 21 18 21 18 16 15 15 15 15 15 14 14 16 15 17 17 17 16 16 15 16 16 16 16 15 14 13 13 13 12 12 12
4 2 6 4 3 2 4 7 15 9 9 9 17 7 10 12 15 17 18 18 17 17 15 15 15 14 14 14 15 16 17 17 17 17 16 16 16 17 18 18 17 16 15 14 13 13 13 11 9
6 5 4 3 4 2 4 14 13 4 5 12 7 7 10 13 17 19 18 19 19 17 15 15 14 14 14 16 16 16 16 16 16 16 16 17 18 18 18 18 17 17 16 16 15 13 11 11 10
5 3 4 2 5 3 4 14 15 13 19 17 15 13 5 14 18 18 16 17 15 16 15 14 14 14 15 15 15 16 16 16 16 15 15 16 16 16 17 17 17 16 15 14 14 12 10 9 9
4 3 3 1 3 2 4 15 8 13 12 7 20 5 11 22 18 18 15 13 15 14 14 13 13 14 14 15 15 15 15 15 14 15 15 15 16 17 17 16 16 14 13 12 11 9 6 5 5
4 3 2 1 3 2 10 7 14 17 5 21 18 7 9 26 21 18 14 11 13 13 12 13 13 13 14 15 15 15 15 14 15 16 17 17 17 17 15 14 13 13 11 10 9 7 5 5 3
3 3 1 3 4 3 9 7 14 5 21 3 10 18 27 29 23 21 17 14 14 13 12 13 14 14 15 14 16 16 14 16 18 19 20 20 18 16 16 13 11 11 11 9 6 4 2 3 1
2 2 0 1 3 4 9 21 19 8 14 6 17 23 28 29 26 24 20 17 15 14 13 14 15 16 16 16 17 17 18 20 20 19 19 18 18 16 15 13 11 10 9 7 6 3 4 3 3
2 1 2 9 4 12 16 14 7 23 3 20 30 28 30 30 29 26 20 15 16 15 11 15 16 17 18 18 18 22 23 22 20 18 17 17 16 15 14 12 12 9 8 5 3 3 2 4 5
2 9 5 7 10 3 11 16 10 15 9 27 33 31 33 33 31 28 23 19 19 12 11 16 17 19 20 23 25 22 19 16 15 15 15 14 14 13 12 11 9 9 6 4 2 2 1 1 3
3 4 7 18 19 12 12 8 9 13 17 27 33 30 32 30 28 27 19 17 18 15 13 16 19 22 24 26 22 19 15 15 15 15 9 10 11 10 8 8 6 9 6 8 4 4 4 2 3
7 13 19 16 10 19 15 6 14 13 30 32 34 33 31 28 29 27 24 21 21 19 16 19 23 22 23 23 19 15 13 13 15 8 10 8 11 3 5 5 5 7 5 9 8 5 5 3 2
16 7 6 8 1 4 12 4 3 28 30 30 32 32 30 31 30 29 26 22 22 22 21 21 23 22 20 20 18 16 12 15 12 9 11 6 4 3 2 9 7 10 7 8 7 6 7 7 5
4 4 5 5 8 3 5 4 5 24 29 27 30 32 30 31 32 30 28 23 24 24 26 23 24 23 19 16 15 18 15 15 13 9 11 9 7 7 4 6 8 5 5 8 8 8 6 2 5
5 2 1 7 4 1 4 2 9 21 22 24 29 31 29 30 30 32 31 30 30 27 27 24 24 24 21 18 15 19 17 15 13 14 13 9 10 10 8 8 11 11 8 7 6 6 7 6 6
3 4 4 3 2 2 2 6 7 18 21 21 24 31 30 27 29 27 31 34 32 29 26 22 20 23 24 21 18 18 16 17 16 14 16 15 15 13 11 11 11 10 8 7 8 9 9 10 13
3 5 7 3 5 3 5 5 7 20 24 24 27 28 32 31 26 28 34 34 34 31 27 24 21 25 27 28 26 21 16 16 20 20 15 16 21 19 16 13 12 12 11 10 11 13 15 15 15
7 8 4 1 9 4 5 3 7 11 22 28 24 27 27 20 25 36 38 39 37 32 29 27 25 22 28 31 30 27 23 20 18 20 20 17 19 23 21 19 16 13 15 14 16 16 15 13 12
3 3 3 1 5 1 2 6 6 8 9 9 17 11 18 20 27 40 43 44 37 36 32 29 28 25 23 30 34 31 28 26 23 23 25 23 20 25 25 24 21 19 16 18 17 15 14 12 11
2 3 9 7 4 5 5 5 6 5 6 5 9 14 14 17 24 34 43 43 41 38 33 28 27 26 24 24 28 35 38 32 26 22 17 22 19 25 27 23 20 17 16 16 14 8 10 14 12
9 6 8 8 3 3 2 1 7 3 6 7 4 15 18 14 10 24 35 43 42 39 38 32 28 27 26 27 26 28 39 38 31 25 22 20 18 23 23 21 18 19 17 15 13 14 10 13 10
2 2 5 6 4 1 4 6 7 4 6 3 5 14 19 15 14 14 13 24 37 37 36 38 33 28 27 29 29 28 27 30 29 25 24 21 21 22 25 25 24 24 19 16 14 11 11 10 8
4 5 3 3 1 6 3 3 9 2 6 8 11 18 18 18 18 22 20 15 29 42 39 38 39 33 31 31 31 29 26 27 27 25 25 24 24 22 23 22 19 18 16 13 13 15 10 6 6
6 7 5 5 4 5 2 6 5 4 3 6 11 6 11 15 21 19 18 12 16 32 39 36 40 37 36 35 36 34 32 22 26 29 28 21 16 14 15 13 8 6 7 4 4 4 5 5 5
5 4 5 3 3 2 3 6 1 3 2 3 5 8 4 8 14 17 17 20 17 24 33 44 37 38 38 38 37 35 29 10 25 29 18 12 11 11 7 4 7 5 4 5 7 6 6 6 8
2 3 3 3 2 4 4 5 4 7 8 4 4 10 7 5 9 17 17 16 19 23 34 39 45 41 33 35 34 31 25 29 24 18 15 12 9 7 7 8 8 8 8 8 9 11 8 7 7
3 3 4 4 4 2 3 6 5 12 14 8 6 3 4 3 2 6 11 13 14 19 29 34 38 31 25 22 29 25 15 15 14 11 10 9 8 7 6 5 3 3 5 5 6 7 7 7 6
1 2 4 5 6 3 5 6 4 4 13 20 12 12 9 8 7 5 5 6 8 12 18 23 29 30 26 29 18 12 13 11 9 10 11 9 8 6 3 3 4 5 5 6 5 5 6 6 7
Wind_Direction
0 328 312 325 53 80 32 46 94 91 78 225 162 169 144 57 103 193 144 150 154 154 147 149 148 144 140 133 131 129 130 129 128 126 126 127 129 127 126 125 124 123 117 114 115 118 118 115 100
18 109 80 88 74 71 353 48 91 77 113 103 100 102 56 80 99 139 146 152 159 154 149 151 148 146 139 136 136 132 131 127 126 123 124 125 126 123 124 123 121 119 116 116 119 120 121 124 103
66 99 73 75 97 159 118 87 103 108 113 70 99 76 72 94 129 137 146 149 159 153 149 151 150 146 142 139 137 133 129 129 127 125 120 124 125 132 126 122 113 112 111 114 117 122 128 125 113
125 58 64 72 346 71 123 140 130 123 95 85 101 69 78 125 121 130 134 149 153 151 153 154 153 149 144 144 143 139 135 132 128 125 123 125 132 125 124 117 116 114 111 111 115 120 132 138 126
17 63 56 45 308 32 72 129 131 123 88 112 106 101 108 145 134 137 139 152 154 150 154 157 154 150 144 147 147 143 137 136 132 127 129 127 127 128 123 117 115 111 108 107 110 117 129 137 135
34 65 51 36 321 88 89 124 105 95 102 96 98 109 135 154 144 144 140 148 154 150 155 160 158 153 152 152 150 146 140 137 134 133 135 133 129 126 121 118 113 110 106 105 108 119 131 135 113
104 63 128 289 293 59 111 137 111 123 117 93 131 90 143 161 155 149 146 154 155 157 159 162 160 161 157 154 152 147 143 139 135 137 138 136 133 128 121 119 117 114 110 107 109 122 144 146 134
111 105 108 260 189 220 126 127 146 127 76 137 122 162 167 167 164 153 145 151 156 161 160 159 161 161 159 155 152 149 145 144 140 138 138 139 135 131 127 127 126 120 117 115 117 127 131 118 138
65 65 138 178 189 216 161 126 159 141 139 152 201 162 158 167 163 156 148 151 160 158 160 164 164 154 155 158 154 151 148 141 139 140 144 144 139 138 134 132 127 123 120 119 110 108 114 90 113
115 79 151 255 234 175 161 143 154 123 152 94 126 144 163 168 168 163 158 149 148 153 148 160 165 161 157 156 156 147 139 140 139 143 144 144 143 143 142 141 135 130 132 118 99 359 21 39 41
43 203 49 7 326 161 144 143 137 136 189 166 151 161 168 172 176 173 167 147 126 136 145 152 161 163 156 152 143 138 137 135 136 139 142 145 148 149 149 148 140 138 141 122 78 68 315 335 337
326 249 265 161 246 240 148 154 139 161 193 174 160 162 169 179 182 182 174 164 148 142 141 148 154 156 151 144 139 139 136 138 139 139 143 150 155 159 159 158 151 147 162 142 120 24 136 344 352
224 280 176 207 221 228 152 206 174 198 167 164 161 163 174 185 186 185 176 169 160 152 146 148 150 152 151 147 144 148 146 151 152 146 157 176 175 178 183 186 164 213 241 187 186 142 154 191 320
317 305 289 188 193 160 140 178 139 162 161 164 170 175 178 189 194 190 185 183 180 162 152 146 149 153 157 157 154 154 157 158 161 166 161 156 191 183 161 218 179 162 135 166 184 190 212 212 295
331 329 34 29 66 95 105 30 212 154 160 166 179 185 188 192 195 199 195 191 186 178 163 159 163 160 160 163 167 176 160 158 161 150 166 164 181 201 92 168 117 178 167 188 210 230 257 249 247
43 7 15 330 2 100 76 273 115 160 163 175 186 194 200 201 203 207 203 200 191 185 180 171 168 173 177 183 192 186 186 176 172 173 186 191 173 193 194 154 191 189 218 219 224 230 237 209 249
35 288 143 334 358 60 78 253 145 174 182 185 194 201 205 209 212 214 210 207 197 193 189 186 186 187 194 198 202 201 196 193 200 199 208 209 218 212 214 224 235 240 223 222 241 241 246 256 269
311 334 319 242 329 84 143 118 135 184 201 211 211 204 210 217 216 219 214 206 202 198 198 198 197 196 197 200 207 195 199 217 208 208 227 228 238 235 226 234 240 237 257 263 267 271 258 276 275
179 219 249 345 333 65 321 164 191 188 205 206 215 220 210 216 218 214 202 204 202 201 201 203 202 200 201 204 203 201 203 201 212 222 218 228 233 234 233 230 233 234 243 259 266 270 271 274 282
239 268 279 37 7 107 11 303 243 227 208 201 208 217 224 216 208 204 201 201 204 203 205 205 207 205 209 212 210 209 210 211 218 220 228 226 234 227 230 235 244 245 262 260 270 273 274 273 279
340 38 316 19 345 35 267 284 199 241 242 234 218 229 210 213 204 200 199 202 208 205 206 209 212 208 199 204 210 213 214 220 227 229 231 234 238 227 227 235 241 253 256 271 269 273 268 266 273
289 263 213 170 127 253 42 269 256 226 231 211 231 228 201 207 197 205 204 206 212 213 210 214 217 217 205 194 206 213 214 219 228 228 238 242 230 224 228 234 242 253 264 267 269 268 281 274 267
233 210 188 161 156 63 217 16 272 31 253 252 197 217 213 207 175 206 211 215 215 215 215 217 218 221 215 206 206 212 219 229 232 232 244 243 233 229 231 234 237 260 263 277 258 275 274 278 262
285 151 47 43 59 278 213 158 274 204 223 208 160 178 188 186 202 203 221 232 226 221 221 223 221 223 223 215 214 217 222 222 224 234 243 241 233 239 252 260 252 267 265 272 266 270 285 257 266
73 51 350 16 351 228 321 155 248 253 221 188 173 178 186 190 204 203 231 232 229 226 224 229 225 225 224 222 221 223 228 234 241 247 243 237 241 245 248 252 254 263 272 276 265 263 258 230 267
183 151 165 228 206 250 42 232 270 328 333 188 182 187 188 206 202 205 234 201 225 233 227 232 229 228 227 225 221 221 226 233 250 259 257 258 252 250 247 250 252 259 258 251 206 198 223 223 240
185 181 194 164 60 77 233 285 101 33 29 173 185 172 176 214 221 236 254 237 263 243 231 226 231 234 228 225 218 220 228 197 256 259 251 240 247 246 238 220 250 236 223 213 214 223 221 212 186
159 179 27 8 258 266 269 276 239 230 224 248 227 171 169 196 250 256 274 269 268 230 225 231 229 234 231 228 224 220 232 226 229 234 233 224 213 193 182 209 227 237 242 245 243 244 240 235 221
8 2 42 120 138 203 315 273 194 220 206 173 180 124 182 154 272 294 289 272 243 224 212 219 224 223 221 236 233 242 218 207 206 213 208 190 170 178 185 186 197 197 182 203 221 230 242 239 222
1 112 130 114 273 190 155 273 294 301 165 154 161 173 184 185 175 175 178 186 208 205 206 210 217 214 207 214 210 195 196 192 198 191 180 176 171 169 183 220 226 214 220 221 223 228 209 179 175
Height
1500 1502 1502 1504 1514 1514 1517 1512 1504 1508 1512 1511 1513 1517 1522 1523 1525 1536 1529 1533 1537 1540 1542 1545 1548 1549 1551 1552 1553 1554 1554 1555 1556 1558 1559 1561 1561 1562 1563 1564 1564 1566 1566 1567 1568 1569 1570 1571 1571
1501 1501 1504 1505 1519 1527 1523 1508 1510 1508 1510 1512 1514 1518 1520 1525 1525 1527 1531 1535 1539 1542 1544 1546 1548 1550 1552 1553 1554 1555 1555 1556 1558 1559 1561 1562 1562 1563 1564 1565 1566 1567 1568 1568 1569 1570 1571 1573 1574
1503 1503 1504 1509 1518 1528 1523 1509 1510 1512 1511 1512 1516 1519 1523 1527 1528 1530 1533 1536 1541 1544 1545 1547 1549 1551 1553 1554 1555 1556 1557 1557 1559 1560 1562 1563 1563 1564 1565 1567 1568 1569 1570 1571 1572 1572 1574 1575 1575
1504 1505 1507 1517 1517 1506 1509 1509 1510 1512 1513 1513 1517 1522 1527 1529 1531 1534 1535 1538 1542 1545 1546 1548 1550 1552 1553 1554 1556 1556 1557 1559 1560 1562 1563 1564 1564 1566 1567 1568 1569 1570 1572 1573 1574 1574 1575 1576 1576
1504 1505 1516 1520 1518 1507 1508 1509 1510 1513 1515 1516 1518 1527 1530 1534 1536 1536 1538 1540 1542 1545 1547 1549 1551 1553 1554 1555 1556 1556 1558 1560 1562 1564 1565 1565 1566 1567 1568 1570 1572 1573 1574 1575 1576 1576 1576 1576 1576
1506 1508 1523 1529 1519 1508 1510 1511 1511 1515 1517 1519 1524 1526 1533 1536 1538 1539 1540 1543 1545 1546 1548 1550 1552 1553 1554 1555 1556 1558 1560 1562 1563 1565 1566 1567 1568 1570 1571 1573 1573 1575 1576 1577 1577 1577 1576 1576 1577
1510 1513 1524 1523 1519 1512 1511 1513 1515 1516 1518 1522 1523 1528 1534 1537 1540 1541 1543 1545 1547 1548 1549 1551 1552 1553 1554 1556 1558 1560 1562 1564 1565 1566 1568 1569 1570 1571 1572 1573 1574 1576 1577 1577 1578 1578 1577 1577 1577
1510 1515 1519 1517 1517 1516 1511 1513 1517 1517 1520 1523 1524 1530 1534 1537 1540 1543 1545 1547 1548 1549 1551 1552 1553 1554 1556 1558 1560 1561 1563 1565 1566 1567 1569 1570 1571 1572 1574 1574 1575 1576 1577 1578 1578 1578 1578 1578 1577
1513 1519 1525 1518 1517 1510 1511 1513 1520 1520 1520 1525 1524 1525 1531 1537 1541 1545 1546 1548 1549 1550 1551 1553 1554 1555 1557 1559 1561 1562 1564 1565 1566 1567 1569 1570 1572 1573 1574 1576 1576 1577 1578 1579 1580 1580 1579 1579 1579
1514 1520 1516 1508 1508 1507 1508 1511 1516 1521 1524 1525 1526 1530 1532 1537 1541 1544 1546 1547 1549 1550 1552 1553 1555 1556 1558 1560 1562 1564 1565 1566 1567 1569 1571 1572 1573 1574 1576 1576 1577 1578 1579 1581 1582 1581 1579 1579 1579
1513 1517 1511 1510 1509 1507 1509 1512 1515 1520 1526 1523 1522 1527 1533 1537 1540 1543 1546 1548 1549 1552 1553 1553 1555 1557 1559 1561 1565 1566 1567 1568 1570 1572 1574 1575 1575 1576 1577 1577 1578 1579 1580 1580 1582 1581 1580 1581 1581
1515 1510 1515 1513 1508 1510 1512 1516 1516 1517 1516 1521 1523 1526 1531 1535 1540 1543 1546 1548 1550 1553 1554 1555 1557 1559 1560 1563 1566 1569 1570 1572 1574 1575 1576 1577 1577 1577 1578 1578 1579 1579 1580 1580 1580 1581 1581 1581 1581
1516 1508 1510 1508 1507 1510 1513 1516 1515 1518 1518 1522 1527 1529 1532 1536 1539 1543 1546 1549 1551 1553 1555 1557 1558 1560 1562 1564 1568 1570 1571 1572 1574 1576 1577 1577 1578 1578 1579 1579 1579 1579 1579 1579 1580 1580 1580 1581 1581
1510 1507 1504 1506 1505 1507 1511 1514 1512 1519 1520 1525 1528 1530 1533 1535 1538 1543 1546 1548 1550 1553 1555 1558 1559 1562 1564 1566 1568 1570 1572 1573 1574 1575 1576 1576 1578 1578 1577 1578 1578 1578 1578 1579 1579 1579 1579 1580 1580
1515 1513 1504 1508 1509 1511 1512 1517 1517 1518 1524 1526 1529 1531 1533 1535 1538 1540 1544 1546 1550 1552 1555 1558 1561 1563 1564 1566 1569 1570 1572 1574 1574 1574 1575 1576 1577 1578 1578 1578 1578 1579 1578 1578 1578 1579 1578 1578 1577
1518 1521 1529 1513 1511 1512 1512 1530 1521 1523 1523 1526 1528 1530 1532 1535 1536 1539 1542 1545 1548 1551 1553 1556 1559 1563 1565 1566 1568 1570 1572 1573 1574 1574 1575 1576 1577 1579 1579 1579 1579 1579 1578 1578 1577 1577 1577 1577 1577
1527 1535 1527 1521 1514 1513 1516 1524 1521 1525 1525 1525 1525 1527 1529 1532 1535 1538 1541 1542 1543 1547 1550 1554 1557 1559 1563 1566 1568 1569 1571 1572 1573 1574 1574 1575 1575 1577 1577 1577 1576 1576 1575 1575 1575 1575 1575 1575 1575
1539 1537 1529 1528 1518 1515 1521 1523 1520 1523 1524 1524 1525 1524 1526 1529 1532 1534 1536 1540 1543 1545 1547 1550 1553 1555 1558 1563 1567 1569 1570 1570 1571 1573 1573 1573 1574 1574 1574 1574 1574 1573 1573 1572 1572 1572 1572 1573 1574
1524 1531 1532 1522 1516 1519 1524 1519 1517 1514 1517 1518 1520 1521 1519 1522 1527 1530 1533 1537 1541 1544 1545 1548 1551 1554 1557 1558 1563 1566 1568 1569 1569 1570 1571 1570 1569 1571 1571 1571 1571 1570 1571 1571 1571 1571 1571 1571 1571
1524 1533 1530 1521 1519 1518 1524 1520 1515 1510 1503 1508 1515 1517 1520 1522 1522 1525 1529 1532 1534 1537 1542 1544 1547 1551 1553 1556 1559 1563 1565 1564 1564 1566 1566 1567 1565 1566 1567 1568 1568 1568 1569 1569 1569 1569 1569 1569 1568
1531 1535 1533 1528 1522 1520 1518 1518 1513 1503 1507 1510 1511 1515 1516 1519 1518 1521 1525 1527 1532 1534 1537 1541 1544 1546 1547 1550 1554 1557 1560 1561 1561 1561 1561 1563 1564 1563 1563 1564 1566 1567 1568 1568 1567 1566 1566 1567 1566
1542 1522 1518 1524 1530 1546 1528 1543 1510 1501 1504 1504 1508 1511 1512 1513 1514 1519 1521 1525 1525 1528 1533 1537 1541 1544 1546 1547 1550 1550 1552 1555 1557 1558 1561 1560 1560 1561 1562 1562 1563 1564 1564 1565 1567 1565 1564 1565 1563
1523 1518 1514 1516 1530 1538 1534 1546 1515 1507 1504 1500 1503 1505 1509 1511 1514 1518 1518 1519 1524 1530 1533 1532 1535 1539 1543 1545 1546 1548 1548 1551 1555 1556 1556 1559 1560 1560 1559 1560 1561 1561 1561 1561 1563 1562 1561 1562 1562
1508 1518 1523 1527 1536 1555 1530 1535 1515 1513 1500 1497 1498 1501 1502 1506 1509 1514 1518 1521 1522 1526 1530 1534 1532 1534 1538 1541 1544 1546 1548 1550 1551 1552 1553 1556 1556 1556 1557 1557 1558 1558 1558 1558 1558 1559 1558 1560 1560
1516 1527 1551 1553 1559 1554 1534 1538 1510 1499 1495 1493 1493 1495 1497 1500 1502 1506 1509 1511 1515 1519 1526 1527 1530 1530 1534 1537 1540 1544 1547 1549 1550 1551 1550 1551 1551 1551 1552 1553 1553 1555 1555 1555 1556 1556 1555 1558 1558
1520 1527 1547 1553 1560 1541 1530 1538 1508 1499 1494 1491 1492 1495 1495 1495 1495 1492 1499 1503 1509 1513 1519 1523 1526 1526 1530 1533 1535 1537 1540 1543 1545 1546 1546 1546 1548 1547 1549 1549 1550 1551 1552 1553 1554 1555 1556 1557 1558
1517 1529 1511 1525 1538 1545 1532 1516 1506 1500 1496 1492 1491 1494 1494 1494 1494 1494 1495 1500 1505 1508 1514 1519 1523 1522 1523 1528 1532 1534 1535 1530 1540 1542 1545 1547 1546 1546 1548 1549 1550 1550 1551 1553 1554 1555 1556 1557 1558
1501 1501 1525 1534 1539 1540 1535 1524 1516 1507 1501 1497 1493 1491 1496 1497 1498 1496 1495 1499 1501 1504 1508 1512 1514 1519 1527 1530 1532 1532 1520 1533 1537 1539 1542 1543 1543 1543 1546 1549 1550 1549 1551 1552 1553 1554 1555 1557 1558
1510 1516 1517 1527 1536 1543 1550 1526 1500 1499 1496 1500 1500 1498 1499 1500 1501 1499 1496 1496 1499 1501 1505 1509 1512 1518 1525 1501 1526 1526 1531 1531 1535 1539 1542 1542 1541 1543 1544 1545 1548 1548 1549 1550 1552 1553 1554 1555 1556
1502 1507 1518 1537 1532 1536 1540 1527 1494 1490 1491 1496 1499 1499 1500 1501 1501 1501 1500 1499 1500 1503 1503 1506 1510 1513 1519 1522 1524 1524 1530 1528 1532 1537 1540 1540 1541 1542 1543 1544 1547 1548 1548 1549 1551 1552 1553 1554 1556